Vorticity
nan nan nan nan nan nan nan nan nan nan nan nan nan nan nan nan nan nan nan nan nan nan nan nan nan nan nan nan nan nan nan nan nan nan nan nan nan nan nan nan nan nan nan nan nan nan nan nan nan
nan 2 2 7 7 3 6 12 13 15 9 7 9 5 -1 8 18 13 16 7 3 6 6 4 5 6 5 5 5 6 5 5 5 5 6 6 5 5 5 5 6 7 7 6 5 4 4 3 nan
nan 10 7 8 3 1 -1 15 11 6 2 2 1 4 7 7 6 5 8 6 10 3 7 6 6 6 4 6 6 6 6 6 6 5 5 5 5 4 6 6 7 7 6 5 4 3 3 3 nan
nan 9 4 6 9 4 11 10 9 8 2 4 -1 2 4 8 14 15 7 7 4 5 9 7 6 6 5 5 7 5 6 5 5 6 5 5 5 5 5 6 6 6 5 4 3 3 3 4 nan
nan 6 8 6 4 3 12 18 12 3 -3 -1 10 17 4 12 13 7 5 12 7 7 3 7 8 5 9 8 5 5 5 5 5 5 5 5 5 5 4 5 4 3 3 3 3 3 4 4 nan
nan 5 6 6 7 14 5 8 7 8 7 -3 13 10 1 7 6 6 8 8 9 6 5 7 3 8 7 3 3 5 5 5 5 6 5 4 4 5 4 4 4 3 3 3 4 3 4 3 nan
nan 5 3 2 2 12 23 8 0 6 6 4 4 4 10 10 6 5 5 7 4 5 8 6 9 2 3 4 5 5 5 5 4 5 5 4 4 4 4 4 4 4 4 4 4 4 4 4 nan
nan 4 6 7 11 2 7 14 -1 2 11 13 7 3 7 14 7 4 6 7 4 7 9 4 5 9 5 4 4 3 4 5 6 5 5 5 3 4 3 2 2 3 3 3 3 4 6 7 nan
nan 5 9 19 16 10 6 4 6 10 -1 3 5 10 8 16 3 5 4 5 2 7 10 13 5 5 3 6 3 5 5 2 2 4 4 2 6 8 5 4 4 3 3 3 4 3 4 9 nan
nan 5 -1 12 29 11 3 7 3 -2 10 14 5 11 14 5 3 5 6 9 7 11 8 4 8 6 3 6 5 3 4 5 5 7 7 5 7 8 9 9 5 4 4 7 5 6 9 9 nan
nan -0 2 1 -0 0 23 24 12 6 2 8 9 13 15 4 5 6 9 8 9 7 9 5 7 9 8 4 5 6 6 6 8 8 7 10 7 8 8 7 8 10 6 9 10 10 10 8 nan
nan 5 11 6 1 8 20 8 13 11 14 13 1 5 8 5 9 4 7 8 7 8 7 7 5 5 9 8 9 9 7 8 8 7 8 7 5 6 8 7 7 8 8 9 10 8 7 8 nan
nan 5 15 8 7 9 10 8 12 4 11 3 19 11 6 5 7 5 8 6 6 5 7 7 7 7 7 8 9 8 8 8 8 7 9 8 9 8 7 8 8 7 8 7 9 9 6 6 nan
nan 5 10 16 11 5 -3 11 14 13 11 9 20 8 6 8 6 6 6 5 9 6 7 6 5 7 8 7 8 6 7 7 9 9 8 9 8 6 7 7 8 10 9 8 7 7 7 6 nan
nan 11 7 9 7 6 6 8 5 16 16 9 6 6 6 10 5 6 6 7 7 8 7 6 7 8 8 8 5 7 6 5 8 8 6 9 10 8 9 8 8 8 5 6 8 6 9 7 nan
nan 14 3 3 3 12 8 14 9 6 5 7 5 5 8 6 5 7 6 8 7 7 7 5 7 6 2 6 8 10 8 8 7 7 8 8 8 9 6 7 8 8 8 8 8 7 6 8 nan
nan 7 8 8 9 6 8 12 8 2 16 -9 6 6 7 7 6 7 6 8 8 7 5 8 4 5 4 5 7 8 10 7 8 7 8 6 5 8 9 9 6 6 9 9 8 8 7 7 nan
nan 10 10 5 14 5 17 6 6 2 1 9 13 8 7 8 9 7 6 7 8 7 6 5 6 5 4 6 8 7 7 7 7 8 6 9 8 6 10 10 8 6 7 7 7 8 9 7 nan
nan 10 9 13 7 6 14 8 8 9 -3 17 3 7 6 6 7 8 6 8 7 7 8 5 6 3 5 9 7 7 8 7 8 7 7 8 9 8 7 6 6 9 9 7 8 9 8 9 nan
nan 15 13 10 7 12 7 8 8 8 4 6 8 5 5 7 6 4 8 9 6 7 8 7 6 4 8 7 7 10 10 8 8 8 6 4 7 6 8 8 8 8 7 8 8 9 9 9 nan
nan 14 11 7 5 0 7 19 20 3 5 7 7 6 8 8 7 7 6 4 10 9 8 6 7 10 9 9 8 10 9 10 8 7 6 5 7 7 8 8 10 10 9 8 8 8 10 9 nan
nan 11 18 -3 6 20 4 -4 -2 15 17 8 7 7 8 10 7 8 7 8 6 8 9 11 8 7 8 7 7 9 9 10 9 8 7 7 6 8 9 10 10 9 9 9 8 8 12 9 nan
nan 4 5 7 4 1 4 17 8 10 6 12 8 11 9 9 10 9 8 5 7 9 9 9 10 7 8 10 10 9 11 8 7 6 7 8 6 7 8 8 7 9 9 8 11 11 11 11 nan
nan 9 7 12 13 10 11 9 8 14 5 17 12 8 10 10 10 8 11 7 8 6 8 10 8 7 7 7 9 10 9 9 9 8 8 7 8 7 7 7 8 9 9 13 12 12 8 8 nan
nan 5 9 11 13 9 17 11 16 19 12 13 7 10 9 9 10 12 7 6 7 8 7 7 9 7 7 7 7 7 7 7 7 7 8 7 9 8 6 7 9 8 12 10 10 8 6 7 nan
nan 8 11 7 2 8 17 2 12 33 25 6 9 7 10 7 7 10 7 9 8 6 6 7 8 7 6 6 7 7 6 7 7 8 8 9 8 7 8 8 8 9 10 7 7 7 9 9 nan
nan 12 5 18 13 1 2 6 11 10 17 16 22 9 7 7 8 8 7 6 8 7 6 9 8 7 6 6 6 7 7 8 9 7 7 8 8 8 7 8 9 12 8 8 7 7 8 7 nan
nan 10 14 6 9 11 8 15 21 10 6 13 11 10 8 9 7 8 7 7 8 9 7 8 9 9 6 6 6 8 8 7 6 7 7 7 7 8 7 8 9 10 12 10 6 7 8 10 nan
nan 5 4 9 9 10 12 8 9 10 15 15 11 12 9 8 8 8 7 8 9 9 7 7 9 8 7 5 7 8 7 8 7 7 7 7 7 8 8 9 9 8 8 11 11 10 11 12 nan
nan nan nan nan nan nan nan nan nan nan nan nan nan nan nan nan nan nan nan nan nan nan nan nan nan nan nan nan nan nan nan nan nan nan nan nan nan nan nan nan nan nan nan nan nan nan nan nan nan
CAPE
0 0 0 0 0 0 0 0 0 548 738 521 387 507 638 794 880 544 565 488 193 152 311 349 731 757 791 918 1077 1081 1107 913 698 492 389 344 234 193 293 262 102 39 0 0 0 0 0 0 0
0 0 0 0 0 0 0 1 846 828 627 378 320 307 259 778 1022 930 838 794 516 262 165 318 766 710 846 966 1041 952 1085 748 596 428 283 282 164 90 130 138 110 117 0 0 0 0 0 0 0
0 0 0 0 0 0 0 41 509 743 489 317 144 40 33 497 876 807 1046 806 758 252 163 576 749 512 604 819 800 835 962 773 578 418 213 73 26 1 0 215 200 56 0 0 0 0 19 62 253
0 0 0 0 0 0 0 122 821 592 465 225 122 5 0 0 566 909 869 750 739 623 330 429 362 327 528 584 888 1001 900 686 544 448 295 9 0 0 0 234 183 19 24 19 16 32 99 304 258
0 0 0 0 0 0 53 657 369 232 150 25 5 0 0 232 398 1056 817 776 528 160 152 223 166 370 537 575 1045 953 873 681 543 454 257 89 0 0 32 205 182 37 42 43 56 84 272 348 324
0 0 0 0 0 0 4 394 191 83 103 77 11 21 69 197 498 874 677 612 198 172 192 137 203 325 296 656 799 746 700 620 528 423 217 138 219 232 272 341 340 324 328 398 415 426 439 397 333
0 0 0 0 0 0 0 626 171 82 149 34 182 206 4 306 688 127 100 144 127 327 244 118 256 622 516 475 479 529 571 533 521 407 257 287 323 340 404 477 467 465 495 568 649 602 524 463 390
0 0 0 0 0 28 133 396 33 0 98 135 0 0 200 881 781 16 67 39 1 53 163 185 285 200 674 457 399 419 430 409 404 298 220 239 280 323 360 442 503 485 401 397 468 226 128 231 278
0 0 0 0 14 297 59 4 19 144 11 84 8 0 9 1270 1155 889 733 0 0 43 256 270 404 624 771 572 432 445 501 386 380 230 218 92 161 214 287 355 365 338 134 139 221 60 69 141 183
0 0 0 323 436 333 100 0 0 60 2 391 411 0 13 1125 1144 1150 1155 103 10 138 375 467 625 588 632 348 388 204 152 67 184 205 209 341 595 58 32 313 345 438 178 196 252 203 255 156 0
0 0 4 32 37 54 22 9 139 133 36 3 65 675 1296 1063 973 930 1072 805 453 478 602 668 698 791 636 387 305 86 193 304 679 631 761 717 780 671 523 477 541 385 251 220 157 134 53 17 0
0 0 0 29 0 14 87 159 0 0 0 0 32 784 1144 1111 1007 1046 603 616 664 691 702 710 636 420 227 86 53 150 347 609 639 801 675 793 888 701 480 239 52 61 109 133 131 58 22 0 0
0 0 0 0 0 12 23 12 0 0 0 4 77 776 1094 1104 1022 637 327 492 534 504 371 357 434 433 471 392 691 846 834 914 951 960 928 801 546 303 152 88 91 145 96 35 0 0 0 0 0
0 0 0 0 0 96 2 0 21 2 53 401 426 605 827 868 407 221 277 273 443 320 395 414 312 526 712 918 586 544 532 539 530 884 1031 781 555 312 130 64 0 1 0 0 0 0 0 0 0
0 0 0 0 0 35 21 16 58 244 355 320 221 260 284 355 198 280 254 274 417 405 341 252 400 1075 812 657 499 289 0 115 390 596 640 620 5 1 0 0 0 0 0 0 0 0 0 0 0
0 0 0 0 0 12 2 0 25 246 182 237 143 105 137 130 141 186 209 241 418 308 295 419 698 774 496 58 9 78 289 116 0 0 0 0 0 0 0 0 0 0 0 0 0 0 0 0 0
0 0 0 0 0 0 0 0 5 216 252 235 286 254 267 178 122 129 130 349 389 318 468 759 791 532 97 254 191 289 70 0 0 0 0 0 0 0 0 0 0 0 0 0 0 0 0 0 0
0 0 0 0 0 0 0 0 0 80 61 6 385 428 441 331 196 188 100 367 674 496 508 810 731 624 338 504 78 6 0 0 0 0 0 0 0 0 0 0 0 0 0 0 0 0 0 1 0
0 2 2 6 0 0 26 1 0 13 384 471 509 558 598 590 584 432 321 474 954 832 665 763 697 571 604 318 1 0 0 0 0 0 0 0 0 0 0 0 0 0 0 0 0 0 0 0 0
0 15 3 0 0 0 5 8 3 22 36 182 367 543 555 614 662 742 645 505 906 1010 873 884 688 657 682 182 44 59 0 0 0 0 0 0 0 0 0 0 0 0 0 0 0 0 0 0 0
0 16 16 7 0 0 62 46 4 12 56 99 154 327 517 628 867 886 708 935 1412 1058 1043 988 630 719 127 2 0 0 0 0 0 0 0 0 0 0 0 0 0 0 0 0 0 0 0 0 0
41 51 8 15 37 0 50 96 2 92 19 144 273 333 367 548 793 883 1055 1063 1416 996 997 788 620 5 0 0 0 0 0 0 0 0 0 0 0 0 0 0 0 0 0 0 0 0 0 0 0
23 21 36 44 73 148 80 69 91 1 151 174 359 515 608 716 814 1062 1149 1175 1152 806 1007 556 0 0 0 0 0 0 0 0 0 0 0 0 0 0 0 0 0 0 0 0 0 7 2 0 0
71 7 85 23 56 301 12 49 27 17 21 214 214 412 598 694 946 1066 1047 938 809 818 448 1 0 0 0 0 0 0 0 0 0 0 0 0 0 0 0 0 0 0 0 0 4 0 0 0 0
9 28 72 78 182 249 72 77 251 38 112 87 119 415 594 872 938 1014 1042 1030 656 222 3 0 0 0 0 0 0 0 0 0 0 0 0 0 0 0 0 0 0 0 0 0 0 0 0 0 0
52 1 168 8 0 52 36 38 18 213 159 98 340 552 854 986 1006 856 629 340 95 0 0 0 0 0 0 0 0 0 0 0 0 0 0 0 0 0 0 0 0 0 0 0 0 0 4 16 15
0 59 40 10 129 245 15 0 1 24 11 88 558 545 670 627 446 285 196 0 0 0 0 0 0 0 0 0 0 0 0 0 0 0 0 0 0 0 0 0 0 0 0 7 8 13 25 0 2
5 0 98 88 10 0 0 18 112 59 21 8 416 442 443 369 155 23 1 0 0 0 0 0 0 0 0 0 0 0 0 0 0 0 0 0 0 0 0 0 0 0 0 24 24 32 28 26 25
0 2 0 0 285 514 324 29 1 0 1 53 125 505 355 266 70 0 0 0 0 0 0 0 0 0 0 0 0 0 0 0 0 0 0 0 0 0 0 0 0 0 0 0 6 14 5 47 2
0 78 0 510 32 552 394 12 0 0 0 0 13 276 279 170 28 0 0 0 0 0 0 0 0 0 0 0 0 0 0 0 0 0 0 0 0 0 0 0 0 0 10 7 3 9 10 26 4